DLH646 EDDF-UACC

Flight info

Callsign DLH646
Flight time N/A
Altitude 35000
Route SULU4L SULUS Z650 VEMUT PEPIK ERGOM TEGRI EKSUN RIVOS DINRO N743 UDROS UM859 KARDE UN644 ROLIN LAGAS M747 SUBUT T916 LEYLA N161 MASAV N55 OGANU P574 VETUB VETU2D
Aircraft A339/H-SADE1E2E3GHIJ3J5M1P2RWXY/LB2D1

Departure

Time 2026-05-04 11:16
Airport Frankfurt Main Airport (EDDF)

Arrival

Time N/A
Airport Nursultan Nazarbayev International Airport (UACC)
Time Latitude Longitude Altitude Speed Heading
2026-05-04 10:52 50.04646 8.57273 361 ft 0 kts 298°
2026-05-04 11:01 50.04644 8.57279 361 ft 0 kts 299°
2026-05-04 11:02 50.04637 8.57298 361 ft 2 kts 285°
2026-05-04 11:02 50.04636 8.57321 361 ft 2 kts 268°
2026-05-04 11:05 50.04644 8.57389 361 ft 4 kts 194°
2026-05-04 11:06 50.04611 8.57374 361 ft 5 kts 203°
2026-05-04 11:06 50.04575 8.57329 361 ft 7 kts 234°
2026-05-04 11:06 50.04549 8.57246 361 ft 9 kts 247°
2026-05-04 11:06 50.04525 8.57147 361 ft 10 kts 250°
2026-05-04 11:08 50.04308 8.56233 361 ft 14 kts 251°
2026-05-04 11:10 50.04047 8.55143 361 ft 15 kts 250°
2026-05-04 11:12 50.03750 8.54020 361 ft 16 kts 250°
2026-05-04 11:12 50.03710 8.53856 361 ft 16 kts 250°
2026-05-04 11:12 50.03670 8.53692 361 ft 16 kts 250°
2026-05-04 11:12 50.03631 8.53526 361 ft 16 kts 250°
2026-05-04 11:13 50.03591 8.53361 361 ft 16 kts 250°
2026-05-04 11:13 50.03550 8.53195 361 ft 16 kts 249°
2026-05-04 11:13 50.03509 8.53031 361 ft 16 kts 250°
2026-05-04 11:13 50.03469 8.52866 361 ft 16 kts 249°
2026-05-04 11:14 50.03426 8.52701 361 ft 16 kts 244°
2026-05-04 11:14 50.03339 8.52606 361 ft 15 kts 185°
2026-05-04 11:14 50.03153 8.52605 361 ft 55 kts 180°
2026-05-04 11:16 49.95282 8.56276 3209 ft 245 kts 119°
2026-05-04 11:16 49.94505 8.58662 3717 ft 256 kts 113°
2026-05-04 11:16 49.94026 8.61378 4049 ft 271 kts 98°
2026-05-04 11:17 49.93884 8.64309 4721 ft 274 kts 94°
2026-05-04 11:17 49.93780 8.67267 5450 ft 275 kts 97°
2026-05-04 11:19 49.85577 8.83363 9920 ft 291 kts 121°
2026-05-04 11:19 49.84604 8.86092 10497 ft 295 kts 121°
2026-05-04 11:19 49.83610 8.88857 11093 ft 298 kts 122°
2026-05-04 11:19 49.82600 8.91653 11722 ft 300 kts 122°
2026-05-04 11:20 49.81578 8.94468 12335 ft 302 kts 122°
2026-05-04 11:20 49.80589 8.97363 12914 ft 307 kts 113°
2026-05-04 11:20 49.80327 9.00627 13442 ft 317 kts 83°
2026-05-04 11:20 49.80846 9.03955 14041 ft 321 kts 74°
2026-05-04 11:22 49.83588 9.31010 15913 ft 413 kts 92°
2026-05-04 11:22 49.83561 9.35472 16386 ft 419 kts 91°
2026-05-04 11:23 49.83553 9.39967 17003 ft 421 kts 91°
2026-05-04 11:23 49.83559 9.44535 17578 ft 424 kts 91°
2026-05-04 11:24 49.83642 9.72557 20680 ft 446 kts 91°
2026-05-04 11:25 49.83654 9.77375 21182 ft 449 kts 91°
2026-05-04 11:25 49.83663 9.82266 21658 ft 453 kts 91°
2026-05-04 11:25 49.83671 9.87140 22092 ft 456 kts 92°
2026-05-04 11:26 49.83680 9.96964 22973 ft 463 kts 92°
2026-05-04 11:27 49.83641 10.32447 25727 ft 483 kts 92°
2026-05-04 11:28 49.83626 10.37638 26080 ft 485 kts 91°
2026-05-04 11:28 49.83610 10.42846 26428 ft 488 kts 92°
2026-05-04 11:28 49.83591 10.48148 26759 ft 491 kts 92°
2026-05-04 11:28 49.83570 10.53427 27090 ft 493 kts 92°
2026-05-04 11:29 49.83546 10.58693 27413 ft 496 kts 92°
2026-05-04 11:29 49.83519 10.64012 27732 ft 498 kts 92°
2026-05-04 11:29 49.83489 10.69439 28039 ft 500 kts 92°
2026-05-04 11:29 49.83457 10.74810 28335 ft 503 kts 92°
2026-05-04 11:31 49.83155 11.13217 30079 ft 519 kts 92°
2026-05-04 11:33 49.82722 11.51910 32450 ft 513 kts 92°
2026-05-04 11:33 49.82649 11.57413 32769 ft 512 kts 92°
2026-05-04 11:33 49.82575 11.62834 33083 ft 511 kts 92°
2026-05-04 11:34 49.82499 11.68329 33395 ft 510 kts 93°
2026-05-04 11:34 49.82418 11.73863 33701 ft 509 kts 93°
2026-05-04 11:34 49.82336 11.79285 33982 ft 509 kts 93°
2026-05-04 11:34 49.82250 11.84785 34254 ft 508 kts 93°
2026-05-04 11:35 49.82164 11.90190 34538 ft 508 kts 93°
2026-05-04 11:35 49.82075 11.95637 34826 ft 507 kts 93°
2026-05-04 11:35 49.81982 12.01102 35031 ft 506 kts 93°
2026-05-04 11:35 49.81887 12.06458 35074 ft 507 kts 93°
2026-05-04 11:36 49.81688 12.17370 35082 ft 507 kts 93°
2026-05-04 11:36 49.81479 12.28237 35061 ft 507 kts 93°
2026-05-04 11:37 49.81151 12.39095 35027 ft 506 kts 97°
2026-05-04 11:37 49.80120 12.49756 35032 ft 504 kts 103°
2026-05-04 11:38 49.78315 12.60185 35026 ft 505 kts 109°
2026-05-04 11:38 49.76222 12.70548 35019 ft 504 kts 110°
2026-05-04 11:39 49.74130 12.80856 35014 ft 505 kts 109°
2026-05-04 11:41 49.66771 13.16944 35018 ft 506 kts 109°
2026-05-04 11:41 49.64638 13.27294 35022 ft 506 kts 109°
2026-05-04 11:42 49.62513 13.37561 35022 ft 506 kts 109°
2026-05-04 11:42 49.60368 13.47855 35018 ft 506 kts 109°
2026-05-04 11:43 49.58217 13.58125 35016 ft 506 kts 109°
2026-05-04 11:43 49.56042 13.68464 34999 ft 506 kts 109°
2026-05-04 11:44 49.53884 13.78670 34991 ft 505 kts 109°
2026-05-04 11:44 49.51702 13.88934 34984 ft 505 kts 109°
2026-05-04 11:45 49.49526 13.99125 34984 ft 506 kts 109°
2026-05-04 11:45 49.47321 14.09397 34999 ft 506 kts 109°
2026-05-04 11:46 49.45114 14.19631 34987 ft 507 kts 109°
2026-05-04 11:46 49.42903 14.29829 35001 ft 507 kts 109°
2026-05-04 11:47 49.40674 14.40057 34981 ft 507 kts 109°
2026-05-04 11:47 49.38436 14.50271 35009 ft 506 kts 109°
2026-05-04 11:48 49.36180 14.60516 35003 ft 506 kts 109°
2026-05-04 11:48 49.33933 14.70667 34993 ft 505 kts 109°
2026-05-04 11:49 49.31677 14.80834 34994 ft 505 kts 109°
2026-05-04 11:49 49.29417 14.90951 35010 ft 504 kts 109°
2026-05-04 11:50 49.27148 15.01070 34998 ft 505 kts 109°
2026-05-04 11:50 49.24864 15.11199 35002 ft 505 kts 109°
2026-05-04 11:51 49.22566 15.21337 35015 ft 506 kts 109°
2026-05-04 11:51 49.20274 15.31400 35003 ft 504 kts 109°
2026-05-04 11:52 49.17960 15.41521 35012 ft 504 kts 109°
2026-05-04 11:52 49.15652 15.51562 35015 ft 503 kts 109°
2026-05-04 11:53 49.13343 15.61560 35024 ft 502 kts 109°
2026-05-04 11:53 49.11014 15.71602 35024 ft 501 kts 110°
2026-05-04 11:55 49.01685 16.11348 35060 ft 499 kts 110°
2026-05-04 11:56 48.99330 16.21276 35037 ft 500 kts 110°
2026-05-04 11:56 48.96979 16.31126 35040 ft 498 kts 110°
2026-05-04 11:57 48.94618 16.40980 35044 ft 497 kts 110°
2026-05-04 11:57 48.92256 16.50796 35030 ft 497 kts 110°
2026-05-04 11:58 48.89873 16.60644 35017 ft 496 kts 110°
2026-05-04 11:58 48.87490 16.70450 35015 ft 495 kts 110°
2026-05-04 11:59 48.85107 16.80208 35017 ft 495 kts 110°
2026-05-04 11:59 48.82714 16.89975 35012 ft 495 kts 110°
2026-05-04 12:00 48.80110 16.99573 35011 ft 495 kts 115°
2026-05-04 12:00 48.76838 17.08680 35019 ft 495 kts 122°
2026-05-04 12:01 48.72908 17.17170 35026 ft 494 kts 128°
2026-05-04 12:02 48.57164 17.44595 35054 ft 494 kts 131°
2026-05-04 12:03 48.52668 17.52353 35059 ft 495 kts 131°
2026-05-04 12:03 48.48170 17.60091 35062 ft 494 kts 131°
2026-05-04 12:04 48.43618 17.67900 35062 ft 494 kts 131°
2026-05-04 12:04 48.39093 17.75642 35061 ft 494 kts 131°
2026-05-04 12:05 48.34586 17.83327 35062 ft 495 kts 131°
2026-05-04 12:05 48.30033 17.91072 35058 ft 495 kts 131°
2026-05-04 12:06 48.25494 17.98770 35063 ft 495 kts 131°
2026-05-04 12:06 48.20934 18.06476 35062 ft 496 kts 131°
2026-05-04 12:07 48.16340 18.14219 35053 ft 497 kts 131°
2026-05-04 12:07 48.11753 18.21933 35059 ft 496 kts 131°
2026-05-04 12:08 48.07180 18.29599 35052 ft 496 kts 131°
2026-05-04 12:08 48.02604 18.37245 35049 ft 496 kts 131°
2026-05-04 12:09 47.98005 18.44909 35055 ft 497 kts 131°
2026-05-04 12:09 47.93414 18.52537 35061 ft 497 kts 131°
2026-05-04 12:10 47.88791 18.60193 35038 ft 498 kts 130°
2026-05-04 12:10 47.84139 18.67876 35057 ft 499 kts 131°
2026-05-04 12:11 47.79520 18.75466 35073 ft 500 kts 132°
2026-05-04 12:11 47.74804 18.83029 35064 ft 499 kts 132°
2026-05-04 12:12 47.70100 18.90524 35086 ft 498 kts 132°
2026-05-04 12:12 47.65389 18.98017 35099 ft 499 kts 132°
2026-05-04 12:14 47.46400 19.28042 35123 ft 500 kts 131°
2026-05-04 12:15 47.41666 19.35476 35122 ft 500 kts 131°
2026-05-04 12:15 47.36924 19.42900 35122 ft 500 kts 131°
2026-05-04 12:16 47.32170 19.50323 35120 ft 500 kts 131°
2026-05-04 12:16 47.27383 19.57775 35109 ft 500 kts 131°
2026-05-04 12:17 47.22612 19.65187 35094 ft 501 kts 132°
2026-05-04 12:17 47.17823 19.72597 35109 ft 502 kts 132°
2026-05-04 12:18 47.13059 19.79952 35109 ft 501 kts 132°
2026-05-04 12:18 47.08261 19.87341 35123 ft 501 kts 132°
2026-05-04 12:19 47.03453 19.94722 35132 ft 501 kts 132°
2026-05-04 12:19 46.98666 20.02051 35133 ft 500 kts 131°
2026-05-04 12:20 46.93862 20.09388 35128 ft 500 kts 131°
2026-05-04 12:20 46.89063 20.16695 35112 ft 501 kts 131°
2026-05-04 12:21 46.84240 20.24017 35110 ft 501 kts 131°
2026-05-04 12:21 46.79427 20.31303 35080 ft 501 kts 131°
2026-05-04 12:22 46.74575 20.38629 35084 ft 501 kts 131°
2026-05-04 12:22 46.69775 20.45859 35088 ft 501 kts 131°
2026-05-04 12:23 46.64949 20.53105 35075 ft 500 kts 131°
2026-05-04 12:23 46.60096 20.60377 35086 ft 501 kts 131°
2026-05-04 12:24 46.55239 20.67629 35072 ft 501 kts 132°
2026-05-04 12:24 46.50382 20.74859 35085 ft 501 kts 132°
2026-05-04 12:25 46.45535 20.82058 35088 ft 501 kts 132°
2026-05-04 12:25 46.40700 20.89221 35107 ft 501 kts 132°
2026-05-04 12:26 46.35831 20.96411 35098 ft 501 kts 132°
2026-05-04 12:26 46.31121 21.03759 35090 ft 499 kts 126°
2026-05-04 12:27 46.27127 21.11913 35122 ft 495 kts 118°
2026-05-04 12:27 46.24025 21.20661 35132 ft 490 kts 109°
2026-05-04 12:28 46.21727 21.29847 35126 ft 488 kts 105°
2026-05-04 12:28 46.19603 21.39062 35123 ft 486 kts 105°
2026-05-04 12:29 46.17454 21.48308 35136 ft 486 kts 105°
2026-05-04 12:29 46.15298 21.57506 35125 ft 486 kts 105°
2026-05-04 12:30 46.13125 21.66716 35125 ft 486 kts 105°
2026-05-04 12:30 46.10951 21.75883 35107 ft 485 kts 105°
2026-05-04 12:31 46.08772 21.85028 35100 ft 484 kts 105°
2026-05-04 12:31 46.06589 21.94161 35097 ft 484 kts 105°
2026-05-04 12:32 46.03297 22.07861 35095 ft 483 kts 105°
2026-05-04 12:33 46.01100 22.16956 35093 ft 483 kts 106°
2026-05-04 12:33 45.98904 22.26008 35085 ft 482 kts 105°
2026-05-04 12:34 45.96693 22.35086 35087 ft 481 kts 106°
2026-05-04 12:34 45.94489 22.44097 35095 ft 481 kts 105°
2026-05-04 12:35 45.92275 22.53120 35098 ft 480 kts 105°
2026-05-04 12:35 45.90059 22.62108 35098 ft 479 kts 106°
2026-05-04 12:36 45.87829 22.71119 35101 ft 480 kts 107°
2026-05-04 12:36 45.85602 22.80082 35097 ft 479 kts 107°
2026-05-04 12:37 45.83355 22.89088 35093 ft 478 kts 107°
2026-05-04 12:37 45.81121 22.98008 35085 ft 478 kts 107°
2026-05-04 12:38 45.78886 23.06899 35079 ft 477 kts 107°
2026-05-04 12:38 45.76643 23.15788 35075 ft 477 kts 107°
2026-05-04 12:39 45.74388 23.24689 35117 ft 476 kts 107°
2026-05-04 12:39 45.72137 23.33546 35141 ft 475 kts 107°
2026-05-04 12:40 45.69885 23.42365 35129 ft 474 kts 107°
2026-05-04 12:40 45.67608 23.51240 35133 ft 475 kts 107°
2026-05-04 12:41 45.65351 23.60025 35067 ft 473 kts 107°
2026-05-04 12:41 45.63079 23.68833 35150 ft 471 kts 108°
2026-05-04 12:42 45.60835 23.77519 35103 ft 467 kts 109°
2026-05-04 12:42 45.58556 23.86213 35139 ft 471 kts 108°
2026-05-04 12:43 45.56311 23.94880 35174 ft 466 kts 110°
2026-05-04 12:43 45.54047 24.03480 35108 ft 465 kts 108°
2026-05-04 12:44 45.51795 24.12094 35151 ft 466 kts 111°
2026-05-04 12:44 45.49509 24.20734 35111 ft 468 kts 110°
2026-05-04 12:45 45.47202 24.29418 35101 ft 475 kts 110°
2026-05-04 12:45 45.44878 24.38112 35144 ft 469 kts 111°
2026-05-04 12:46 45.42566 24.46800 35151 ft 473 kts 111°
2026-05-04 12:46 45.40228 24.55536 35115 ft 479 kts 111°
2026-05-04 12:47 45.37826 24.64444 35118 ft 481 kts 111°
2026-05-04 12:47 45.35417 24.73322 35100 ft 486 kts 111°
2026-05-04 12:48 45.33009 24.82262 35100 ft 483 kts 112°
2026-05-04 12:48 45.30602 24.91092 35122 ft 484 kts 111°
2026-05-04 12:49 45.28171 25.00007 35100 ft 483 kts 111°
2026-05-04 12:49 45.25747 25.08859 35097 ft 482 kts 111°
2026-05-04 12:50 45.23319 25.17694 35082 ft 483 kts 112°
2026-05-04 12:50 45.20881 25.26524 35083 ft 482 kts 111°
2026-05-04 12:51 45.18431 25.35359 35099 ft 483 kts 111°
2026-05-04 12:51 45.15991 25.44142 35088 ft 481 kts 112°
2026-05-04 12:52 45.13538 25.52926 35087 ft 481 kts 112°
2026-05-04 12:52 45.11096 25.61642 35084 ft 476 kts 111°
2026-05-04 12:53 45.08657 25.70314 35079 ft 475 kts 112°
2026-05-04 12:53 45.06224 25.78950 35076 ft 474 kts 112°
2026-05-04 12:54 45.03789 25.87555 35066 ft 475 kts 112°
2026-05-04 12:54 45.01331 25.96202 35069 ft 475 kts 112°
2026-05-04 12:55 44.98868 26.04838 35064 ft 475 kts 112°
2026-05-04 12:55 44.96392 26.13489 35064 ft 475 kts 112°
2026-05-04 12:56 44.93933 26.22050 35064 ft 472 kts 112°
2026-05-04 12:56 44.91707 26.30718 35053 ft 470 kts 107°
2026-05-04 12:57 44.89984 26.39632 35053 ft 471 kts 104°
2026-05-04 12:57 44.88316 26.48534 35048 ft 472 kts 104°
2026-05-04 12:58 44.86634 26.57455 35047 ft 471 kts 105°
2026-05-04 12:58 44.84948 26.66345 35046 ft 470 kts 105°
2026-05-04 12:59 44.83265 26.75164 35039 ft 469 kts 105°
2026-05-04 12:59 44.81584 26.83942 35040 ft 467 kts 105°
2026-05-04 13:00 44.79887 26.92752 35057 ft 467 kts 105°
2026-05-04 13:00 44.78180 27.01568 35040 ft 466 kts 105°
2026-05-04 13:01 44.76485 27.10306 35035 ft 467 kts 105°
2026-05-04 13:01 44.74772 27.19067 35044 ft 466 kts 105°
2026-05-04 13:02 44.73059 27.27796 35039 ft 464 kts 105°
2026-05-04 13:02 44.71335 27.36544 35032 ft 465 kts 105°
2026-05-04 13:03 44.69611 27.45249 35018 ft 465 kts 105°
2026-05-04 13:03 44.67780 27.53921 35023 ft 466 kts 109°
2026-05-04 13:04 44.65066 27.62200 35020 ft 468 kts 118°
2026-05-04 13:04 44.61396 27.69674 35027 ft 469 kts 128°
2026-05-04 13:05 44.56829 27.76233 35023 ft 471 kts 137°
2026-05-04 13:05 44.51934 27.82247 35023 ft 471 kts 137°
2026-05-04 13:06 44.47008 27.88258 35025 ft 471 kts 137°
2026-05-04 13:06 44.42065 27.94286 35010 ft 471 kts 137°
2026-05-04 13:07 44.37132 28.00302 35014 ft 472 kts 137°
2026-05-04 13:07 44.32214 28.06289 35028 ft 472 kts 136°
2026-05-04 13:08 44.27262 28.12301 35031 ft 473 kts 136°
2026-05-04 13:08 44.22300 28.18313 35022 ft 472 kts 136°
2026-05-04 13:09 44.17352 28.24296 35028 ft 472 kts 136°
2026-05-04 13:09 44.12410 28.30255 35023 ft 472 kts 136°
2026-05-04 13:10 44.07476 28.36197 35026 ft 472 kts 136°
2026-05-04 13:10 44.02518 28.42146 35028 ft 472 kts 136°
2026-05-04 13:11 43.97552 28.48089 35020 ft 472 kts 136°
2026-05-04 13:11 43.92587 28.54024 35016 ft 472 kts 135°
2026-05-04 13:12 43.87620 28.59949 35014 ft 472 kts 136°
2026-05-04 13:12 43.82637 28.65876 35012 ft 472 kts 136°
2026-05-04 13:13 43.77669 28.71764 35013 ft 473 kts 136°
2026-05-04 13:13 43.72759 28.77816 35017 ft 472 kts 132°
2026-05-04 13:14 43.68325 28.84405 35011 ft 468 kts 126°
2026-05-04 13:14 43.64416 28.91500 35019 ft 466 kts 122°
2026-05-04 13:15 43.60637 28.98731 35016 ft 466 kts 122°
2026-05-04 13:15 43.56837 29.05969 35011 ft 466 kts 122°
2026-05-04 13:16 43.53031 29.13194 35009 ft 466 kts 122°
2026-05-04 13:16 43.49256 29.20350 35008 ft 466 kts 122°
2026-05-04 13:17 43.45445 29.27554 35007 ft 466 kts 122°
2026-05-04 13:17 43.41640 29.34722 34999 ft 466 kts 121°
2026-05-04 13:18 43.37830 29.41891 34997 ft 466 kts 121°
2026-05-04 13:18 43.33999 29.49075 35018 ft 467 kts 121°
2026-05-04 13:18 43.32087 29.52664 35205 ft 467 kts 121°
2026-05-04 13:19 43.30181 29.56234 35430 ft 465 kts 122°
2026-05-04 13:19 43.28912 29.58608 35549 ft 465 kts 122°
2026-05-04 13:19 43.26368 29.63348 35765 ft 466 kts 121°
2026-05-04 13:19 43.24461 29.66902 35943 ft 465 kts 122°
2026-05-04 13:20 43.22521 29.70514 36039 ft 466 kts 122°
2026-05-04 13:20 43.20610 29.74069 36186 ft 467 kts 122°
2026-05-04 13:20 43.18691 29.77634 36274 ft 468 kts 122°
2026-05-04 13:21 43.15125 29.84244 36526 ft 469 kts 122°
2026-05-04 13:21 43.12967 29.88245 36694 ft 469 kts 122°
2026-05-04 13:21 43.11026 29.91830 36925 ft 470 kts 123°
2026-05-04 13:22 43.09081 29.95422 36934 ft 471 kts 123°
2026-05-04 13:22 43.05188 30.02591 36930 ft 471 kts 123°
2026-05-04 13:23 43.01292 30.09745 36983 ft 473 kts 123°
2026-05-04 13:23 42.99321 30.13365 37123 ft 473 kts 123°
2026-05-04 13:23 42.97359 30.16959 37369 ft 472 kts 123°
2026-05-04 13:23 42.95416 30.20518 37556 ft 472 kts 123°
2026-05-04 13:24 42.93444 30.24122 37642 ft 473 kts 123°
2026-05-04 13:24 42.91497 30.27678 37767 ft 474 kts 123°
2026-05-04 13:24 42.89505 30.31312 37887 ft 475 kts 123°
2026-05-04 13:25 42.85545 30.38515 38136 ft 476 kts 123°
2026-05-04 13:25 42.83586 30.42070 38254 ft 477 kts 124°
2026-05-04 13:25 42.81601 30.45672 38358 ft 478 kts 123°
2026-05-04 13:25 42.79625 30.49297 38481 ft 478 kts 122°
2026-05-04 13:26 42.77829 30.53075 38598 ft 476 kts 117°
2026-05-04 13:26 42.76263 30.57014 38722 ft 474 kts 113°
2026-05-04 13:26 42.74926 30.61119 38843 ft 473 kts 108°
2026-05-04 13:26 42.73843 30.65302 38929 ft 473 kts 104°
2026-05-04 13:27 42.72411 30.73986 38874 ft 471 kts 96°
2026-05-04 13:27 42.71517 30.82782 38920 ft 470 kts 96°
2026-05-04 13:28 42.70634 30.91572 38927 ft 471 kts 96°
2026-05-04 13:28 42.69743 31.00298 38776 ft 470 kts 96°
2026-05-04 13:29 42.69287 31.04723 38950 ft 471 kts 96°
2026-05-04 13:29 42.68832 31.09095 38857 ft 470 kts 96°
2026-05-04 13:29 42.67915 31.17854 38843 ft 471 kts 96°
2026-05-04 13:30 42.66990 31.26623 38851 ft 471 kts 96°
2026-05-04 13:30 42.66050 31.35450 38880 ft 471 kts 96°
2026-05-04 13:31 42.65115 31.44179 38803 ft 472 kts 96°
2026-05-04 13:31 42.64636 31.48608 38916 ft 472 kts 96°
2026-05-04 13:31 42.64166 31.52964 38804 ft 471 kts 96°
2026-05-04 13:32 42.63689 31.57365 38913 ft 472 kts 96°
2026-05-04 13:32 42.63210 31.61760 38882 ft 472 kts 96°
2026-05-04 13:32 42.62249 31.70528 38902 ft 472 kts 97°
2026-05-04 13:33 42.61283 31.79274 38833 ft 472 kts 97°
2026-05-04 13:33 42.60303 31.88071 38851 ft 472 kts 97°
2026-05-04 13:34 42.59316 31.96852 38856 ft 472 kts 97°
2026-05-04 13:34 42.58341 32.05580 38807 ft 472 kts 97°
2026-05-04 13:35 42.56852 32.18803 38777 ft 473 kts 97°
2026-05-04 13:36 42.55844 32.27579 38795 ft 473 kts 97°
2026-05-04 13:36 42.54830 32.36332 38773 ft 474 kts 97°
2026-05-04 13:37 42.53809 32.45112 38756 ft 473 kts 97°
2026-05-04 13:37 42.53293 32.49504 38921 ft 474 kts 97°
2026-05-04 13:37 42.52774 32.53910 38801 ft 473 kts 97°
2026-05-04 13:38 42.51743 32.62656 38864 ft 473 kts 97°
2026-05-04 13:38 42.51220 32.67058 38750 ft 472 kts 98°
2026-05-04 13:38 42.50698 32.71432 38838 ft 473 kts 98°
2026-05-04 13:39 42.49647 32.80206 38720 ft 474 kts 98°
2026-05-04 13:39 42.48586 32.89002 38864 ft 475 kts 98°
2026-05-04 13:40 42.47520 32.97755 38773 ft 474 kts 98°
2026-05-04 13:40 42.46444 33.06544 38825 ft 474 kts 98°
2026-05-04 13:41 42.45361 33.15333 38859 ft 474 kts 98°
2026-05-04 13:41 42.44279 33.24103 38849 ft 474 kts 98°
2026-05-04 13:42 42.42635 33.37236 38721 ft 473 kts 98°
2026-05-04 13:42 42.42084 33.41613 38830 ft 474 kts 98°
2026-05-04 13:42 42.41540 33.45934 38776 ft 473 kts 98°
2026-05-04 13:43 42.40432 33.54733 38781 ft 474 kts 98°
2026-05-04 13:43 42.39317 33.63482 38832 ft 474 kts 98°
2026-05-04 13:44 42.38193 33.72225 38824 ft 474 kts 99°
2026-05-04 13:44 42.37069 33.80937 38807 ft 474 kts 99°
2026-05-04 13:45 42.35926 33.89706 38839 ft 473 kts 99°
2026-05-04 13:45 42.34798 33.98402 38795 ft 472 kts 99°
2026-05-04 13:46 42.33652 34.07184 38827 ft 473 kts 99°
2026-05-04 13:46 42.32505 34.15887 38848 ft 473 kts 99°
2026-05-04 13:47 42.31353 34.24569 38835 ft 473 kts 99°
2026-05-04 13:47 42.30188 34.33277 38779 ft 474 kts 99°
2026-05-04 13:48 42.29013 34.42028 38785 ft 474 kts 99°
2026-05-04 13:48 42.27844 34.50708 38809 ft 473 kts 99°
2026-05-04 13:49 42.26658 34.59433 38898 ft 474 kts 99°
2026-05-04 13:49 42.25471 34.68100 38850 ft 474 kts 100°
2026-05-04 13:50 42.24266 34.76833 38779 ft 474 kts 100°
2026-05-04 13:50 42.23661 34.81206 38883 ft 475 kts 100°
2026-05-04 13:50 42.23057 34.85575 38780 ft 475 kts 100°
2026-05-04 13:51 42.21839 34.94327 38880 ft 477 kts 100°